This is the latest recevied weather packets stored in our database for station/object IU5JAE-13. If no packets are shown the sender has not sent any weather packets the latest 10 day(s).
| Time | Temp. | Humidity | Pressure | Rain* | Wind** | Luminosity | Snow |
|---|---|---|---|---|---|---|---|
| 1788527753 | 31.11° C | 47% | 1021.5 hPa | 0 mm | - | 441 W/m² | - |
| 1788527128 | 31.67° C | 46% | 1021.6 hPa | 0 mm | - | 461 W/m² | - |
| 1788526526 | 31.67° C | 47% | 1021.5 hPa | 0 mm | - | 481 W/m² | - |
| 1788525923 | 31.67° C | 47% | 1021.5 hPa | 0 mm | - | 505 W/m² | - |
| 1788525321 | 31.67° C | 47% | 1021.5 hPa | 0 mm | - | 524 W/m² | - |
| 1788524719 | 31.11° C | 47% | 1021.6 hPa | 0 mm | - | 544 W/m² | - |
| 1788524116 | 31.67° C | 46% | 1021.8 hPa | 0 mm | - | 562 W/m² | - |
| 1788523534 | 31.11° C | 47% | 1021.9 hPa | 0 mm | - | 571 W/m² | - |
| 1788522931 | 31.11° C | 48% | 1021.8 hPa | 0 mm | - | 583 W/m² | - |
| 1788522329 | 31.67° C | 48% | 1021.8 hPa | 0 mm | - | 586 W/m² | - |
| 1788521727 | 31.11° C | 49% | 1021.9 hPa | 0 mm | - | 586 W/m² | - |
| 1788521124 | 31.67° C | 48% | 1021.9 hPa | 0 mm | - | 585 W/m² | - |
| 1788520522 | 31.11° C | 49% | 1021.9 hPa | 0 mm | - | 585 W/m² | - |
| 1788519919 | 30.56° C | 50% | 1022 hPa | 0 mm | - | 586 W/m² | - |
| 1788519317 | 30° C | 50% | 1022.1 hPa | 0 mm | - | 585 W/m² | - |
| 1788518735 | 30° C | 51% | 1022.2 hPa | 0 mm | - | 582 W/m² | - |
| 1788518132 | 30° C | 51% | 1022.1 hPa | 0 mm | - | 576 W/m² | - |
| 1788517530 | 30° C | 52% | 1022.1 hPa | 0 mm | - | 568 W/m² | - |
| 1788516927 | 29.44° C | 56% | 1022.2 hPa | 0 mm | - | 559 W/m² | - |
| 1788516325 | 29.44° C | 57% | 1022.3 hPa | 0 mm | - | 549 W/m² | - |
| 1788515722 | 28.89° C | 57% | 1022.4 hPa | 0 mm | - | 542 W/m² | - |
| 1788515120 | 28.89° C | 58% | 1022.4 hPa | 0 mm | - | 537 W/m² | - |
| 1788514518 | 28.89° C | 59% | 1022.5 hPa | 0 mm | - | 532 W/m² | - |
| 1788513915 | 29.44° C | 58% | 1022.5 hPa | 0 mm | - | 522 W/m² | - |
| 1788513348 | 28.89° C | 60% | 1022.3 hPa | 0 mm | - | 505 W/m² | - |
* Rain latest hour (hover to see other rain measurements)
** Current wind speed in m/s (hover to see current wind gust speed)